sat.trackr.live / text

‹ back to catalog

STARLINK-1227

NORAD 45230 · 2020-012BE

PAYLOAD ACTIVE UNKNOWN

§ Identity

Operator
Country
US
Launch date
2020-02-17
Launch site
AFETR
Launch vehicle
Mass (kg)
RCS (m²)

Purposes: comms

External: N2YO · Heavens-Above · Gunter

§ Orbital elements

Epoch: 2026-05-25T00:05:45.407328Z

Period
93.36 min
Inclination
53.1559°
Eccentricity
0.0003329
Mean motion
15.42388838 rev/d
Perigee alt
436.8 km
Apogee alt
441.3 km
Semi-major
6,817.2 km
B*
1.0012e-3
RAAN
0.2153°
Arg perigee
155.8526°
Mean anomaly
204.2637°
Rev number
34,727

§ Raw data

STARLINK-12271 45230U 20012BE  26145.00399777  .00043747  00000+0  10012-2 0  99992 45230  53.1559   0.2153 0003329 155.8526 204.2637 15.42388838347271

JSON: /api/v1/satellites/45230 · /tle

For live sub-satellite position, see the globe view (requires WebGL).

§ Visibility from observer

Set your observer location to see the next 7 days of passes ≥ 10°. The values pass through the URL so the page stays shareable.

No JS? Fill the form by hand. The geolocation button needs JavaScript.